TimeEST,TemperatureF,Dew PointF,Humidity,Sea Level PressureIn,VisibilityMPH,Wind Direction,Wind SpeedMPH,Gust SpeedMPH,PrecipitationIn,Events,Conditions,WindDirDegrees,DateUTC
12:54 AM,23.0,16.0,74,29.92,10.0,NNW,10.4,-,N/A,,Clear,340,2010-02-14 05:54:00
1:54 AM,21.9,15.1,75,29.92,10.0,NNW,6.9,-,N/A,,Clear,340,2010-02-14 06:54:00
2:54 AM,21.9,16.0,78,29.91,10.0,NNW,11.5,-,N/A,,Clear,340,2010-02-14 07:54:00
3:54 AM,21.9,16.0,78,29.92,10.0,NW,12.7,-,N/A,,Clear,320,2010-02-14 08:54:00
4:12 AM,21.2,15.8,80,29.87,10.0,NW,9.2,-,N/A,,Mostly Cloudy,320,2010-02-14 09:12:00
4:54 AM,21.0,17.1,85,29.93,4.0,Calm,Calm,-,0.00,Snow,Light Snow,0,2010-02-14 09:54:00
5:42 AM,21.2,17.6,86,29.89,5.0,NNW,4.6,-,0.00,Snow,Light Snow,340,2010-02-14 10:42:00
5:54 AM,21.0,18.0,88,29.94,5.0,NNW,5.8,-,0.00,Snow,Light Snow,330,2010-02-14 10:54:00
6:33 AM,19.4,17.6,93,29.90,6.0,WNW,3.5,-,0.00,,Overcast,290,2010-02-14 11:33:00
6:54 AM,19.9,17.1,89,29.96,7.0,NNW,5.8,-,0.00,,Mostly Cloudy,330,2010-02-14 11:54:00
7:00 AM,19.4,17.6,93,29.90,7.0,NW,5.8,-,N/A,,Scattered Clouds,310,2010-02-14 12:00:00
7:54 AM,19.9,17.1,89,29.97,7.0,NW,6.9,-,N/A,,Clear,310,2010-02-14 12:54:00
8:54 AM,24.1,19.0,81,29.97,9.0,North,4.6,-,N/A,,Clear,350,2010-02-14 13:54:00
9:54 AM,27.0,19.0,72,29.97,10.0,NNW,8.1,-,N/A,,Clear,340,2010-02-14 14:54:00
10:54 AM,30.0,18.0,61,29.96,10.0,NNW,10.4,-,N/A,,Clear,340,2010-02-14 15:54:00
11:54 AM,32.0,19.0,59,29.96,10.0,Calm,Calm,-,N/A,,Clear,0,2010-02-14 16:54:00
12:54 PM,34.0,19.9,56,29.93,10.0,Calm,Calm,-,N/A,,Partly Cloudy,0,2010-02-14 17:54:00
1:54 PM,37.0,19.9,50,29.90,10.0,North,4.6,-,N/A,,Overcast,360,2010-02-14 18:54:00
2:54 PM,37.0,19.9,50,29.88,10.0,Calm,Calm,-,N/A,,Overcast,0,2010-02-14 19:54:00
3:02 PM,37.4,21.2,52,29.85,10.0,SW,6.9,-,N/A,,Overcast,220,2010-02-14 20:02:00
3:38 PM,37.4,24.8,60,29.85,10.0,SW,3.5,-,0.00,,Overcast,230,2010-02-14 20:38:00
3:54 PM,37.0,24.1,59,29.88,10.0,SW,3.5,-,0.00,,Overcast,230,2010-02-14 20:54:00
4:54 PM,35.1,28.9,78,29.89,10.0,SSW,8.1,-,N/A,,Overcast,210,2010-02-14 21:54:00
5:54 PM,35.1,28.9,78,29.89,10.0,South,3.5,-,N/A,,Overcast,180,2010-02-14 22:54:00
6:54 PM,35.1,28.9,78,29.90,10.0,Calm,Calm,-,N/A,,Overcast,0,2010-02-14 23:54:00
7:54 PM,35.1,28.9,78,29.91,10.0,SSW,3.5,-,N/A,,Overcast,200,2010-02-15 00:54:00
8:54 PM,35.1,28.9,78,29.90,10.0,Calm,Calm,-,N/A,,Overcast,0,2010-02-15 01:54:00
9:54 PM,34.0,30.0,85,29.89,10.0,Calm,Calm,-,N/A,,Overcast,0,2010-02-15 02:54:00
10:54 PM,34.0,30.0,85,29.88,10.0,Calm,Calm,-,N/A,,Overcast,0,2010-02-15 03:54:00
11:54 PM,32.0,28.0,85,29.87,9.0,Calm,Calm,-,N/A,,Clear,0,2010-02-15 04:54:00